"America/Chicago Time","Lifetime Energy (kWh)","Power (W)","AC Volts RMS (V) ","AC Amps RMS (mA)","Grid Frequency (Hz)","Inverter Temperature (C)"
"04/09/12 12:26:17","46.5515","80.7","215.1","399","60.03","15"
"04/09/12 12:31:18","46.5603","44.0","214.38","304","59.96","15"
"04/09/12 12:36:17","46.5647","50.2","214.51","171","60.0","13"
"04/09/12 12:41:17","46.5688","41.9","215.4","121","60.0","13"
"04/09/12 12:46:18","46.5727","43.8","214.99","159","60.03","12"
"04/09/12 12:51:19","46.5776","65.4","215.23","334","60.0","12"
"04/09/12 12:56:18","46.5811","48.0","215.37","135","60.03","11"
"04/09/12 13:01:17","46.5856","66.0","216.15","334","60.0","11"
"04/09/12 13:06:18","46.5906","61.5","214.77","313","60.0","11"
"04/09/12 13:11:18","46.5946","60.9","214.59","395","60.0","11"
"04/09/12 13:16:17","46.598","54.4","214.27","369","60.03","11"
"04/09/12 13:21:17","46.6035","72.3","215.18","361","60.0","11"
"04/09/12 13:26:17","46.6086","48.7","214.61","95","60.03","10"
"04/09/12 13:31:17","46.6116","38.7","215.2","357","60.03","10"
"04/09/12 13:36:18","46.6151","63.8","215.33","164","60.03","10"
"04/09/12 13:41:18","46.6189","32.4","214.93","196","60.0","10"
"04/09/12 13:46:19","46.6217","48.3","214.67","210","60.0","9"
"04/09/12 13:51:17","46.6252","33.4","214.43","252","60.03","9"
"04/09/12 13:56:17","46.6276","32.7","215.9","175","60.03","9"
"04/09/12 14:01:17","46.629","11.5","214.29","2","60.0","9"
"04/09/12 14:06:18","46.6304","12.4","214.32","5","60.03","9"
"04/09/12 14:11:18","46.6317","6.3","214.56","156","60.03","9"
"04/09/12 14:16:17","46.6324","11.4","214.57","12","60.03","8"
"04/09/12 14:21:18","46.6333","20.4","215.17","111","60.0","8"
"04/09/12 14:26:18","46.6341","13.8","214.37","50","60.0","8"
"04/09/12 14:31:19","46.6347","13.7","214.54","13","60.03","7"
"04/09/12 14:36:17","46.6366","39.9","213.8","103","60.0","7"
"04/09/12 14:41:18","46.6389","30.0","214.91","204","60.0","7"
"04/09/12 14:46:18","46.6412","41.7","214.45","288","60.03","7"
"04/09/12 14:51:17","46.6443","62.4","215.26","94","60.0","8"
"04/09/12 14:56:18","46.6508","88.8","216.02","434","60.03","8"
"04/09/12 15:01:18","46.6583","75.3","216.47","374","60.0","9"
"04/09/12 15:06:18","46.6648","75.9","216.18","376","60.03","9"
"04/09/12 15:11:18","46.6709","50.0","214.99","83","60.03","9"
"04/09/12 15:16:19","46.6766","74.9","216.02","371","60.03","9"
"04/09/12 15:21:18","46.6832","184.7","217.61","841","60.03","9"
"04/09/12 15:26:18","46.69","49.0","214.46","338","60.0","9"
"04/09/12 15:31:19","46.6934","75.9","215.67","376","60.03","9"
"04/09/12 15:36:17","46.6996","64.8","215.61","329","60.03","9"
"04/09/12 15:41:17","46.7037","44.0","214.88","125","60.0","9"
"04/09/12 15:46:17","46.7061","38.4","214.61","205","60.03","9"
"04/09/12 15:51:17","46.7085","26.5","214.89","78","60.03","9"
"04/09/12 15:56:17","46.7109","24.4","214.16","175","60.03","8"
"04/09/12 16:01:18","46.7127","30.1","214.11","200","60.03","8"
"04/09/12 16:06:18","46.7146","29.2","214.66","84","60.03","8"
"04/09/12 16:11:18","46.7175","43.4","215.36","357","60.0","7"
"04/09/12 16:16:17","46.7204","15.0","214.61","118","60.03","7"
"04/09/12 16:21:18","46.7213","11.3","214.16","10","60.03","7"
"04/09/12 16:26:17","46.7231","48.8","215.32","172","60.0","7"
"04/09/12 16:31:17","46.7263","40.0","214.65","145","60.03","7"
"04/09/12 16:36:18","46.7287","34.3","214.24","71","60.03","7"
"04/09/12 16:41:17","46.7313","27.6","214.01","110","60.0","7"
"04/09/12 16:46:17","46.7335","30.4","214.09","181","60.03","7"
"04/09/12 16:51:18","46.7356","25.9","214.9","327","60.03","7"
"04/09/12 16:56:18","46.7377","29.1","215.03","290","60.0","7"
"04/09/12 17:01:18","46.7408","36.8","214.94","281","60.07","7"
"04/09/12 17:06:17","46.7443","43.4","214.96","142","60.07","7"
"04/09/12 17:11:17","46.747","26.4","214.96","139","60.03","7"
"04/09/12 17:16:18","46.7494","37.3","215.02","247","60.03","8"
"04/09/12 17:21:18","46.7518","31.7","214.64","68","60.0","8"
"04/09/12 17:26:17","46.7538","34.0","214.37","282","60.03","8"
"04/09/12 17:31:18","46.7557","31.5","213.94","286","60.03","8"
"04/09/12 17:36:18","46.7572","14.4","214.16","174","60.03","8"
"04/09/12 17:41:18","46.7587","15.8","214.13","8","60.03","8"
"04/09/12 17:46:18","46.7599","14.9","213.97","39","60.07","8"
"04/09/12 17:51:17","46.761","11.5","213.62","38","60.03","8"
"04/09/12 17:56:17","46.7619","14.7","213.01","95","60.0","7"
"04/09/12 18:01:17","46.7625","0.0","213.95","0","60.03","7"
"04/09/12 18:06:17","46.763","11.5","214.57","7","60.07","7"
"04/09/12 18:11:17","46.7638","7.3","213.48","0","60.03","7"
"04/09/12 18:16:19","46.7644","11.4","214.21","25","60.03","6"
"04/09/12 18:21:18","46.7647","0.0","213.23","0","60.0","6"
"04/09/12 18:26:17","46.765","11.9","213.8","0","60.03","6"
"04/10/12 06:51:19","46.765","12.5","214.13","1","60.03","3"
"04/10/12 06:56:18","46.7654","0.0","213.61","0","60.03","3"
"04/10/12 07:01:18","46.766","11.9","213.06","22","59.96","3"
"04/10/12 07:06:17","46.7668","15.3","212.66","5","60.03","3"
"04/10/12 07:11:17","46.7678","16.2","213.76","30","60.03","4"
"04/10/12 07:16:19","46.7693","12.2","213.58","245","60.0","4"
"04/10/12 07:21:18","46.771","17.7","213.37","138","60.03","4"
"04/10/12 07:26:17","46.773","32.2","212.95","226","60.0","5"
"04/10/12 07:31:18","46.7755","29.1","213.3","92","60.0","5"
"04/10/12 07:36:18","46.7783","33.8","213.48","140","60.03","5"
"04/10/12 07:41:19","46.7814","48.3","213.23","301","60.03","6"
"04/10/12 07:46:17","46.785","44.3","214.18","412","60.07","6"
"04/10/12 07:51:18","46.7888","51.7","215.11","380","60.03","6"
"04/10/12 07:56:18","46.7927","57.2","214.13","120","60.0","6"
"04/10/12 08:01:18","46.7965","54.0","214.24","384","60.03","6"
"04/10/12 08:06:19","46.8004","46.9","214.85","370","60.03","6"
"04/10/12 08:11:18","46.8047","74.8","214.07","377","60.03","6"
"04/10/12 08:16:19","46.8108","80.1","213.63","400","60.03","7"
"04/10/12 08:21:19","46.8172","85.0","215.0","419","60.03","7"
"04/10/12 08:26:17","46.8241","90.6","214.9","444","60.0","7"
"04/10/12 08:31:18","46.8313","95.2","215.09","462","60.03","8"
"04/10/12 08:36:19","46.8389","99.7","215.3","479","60.03","8"
"04/10/12 08:41:18","46.8468","104.6","215.09","504","60.0","9"
"04/10/12 08:46:18","46.8551","103.7","214.78","500","60.03","9"
"04/10/12 08:51:18","46.8634","113.7","214.7","542","60.0","9"
"04/10/12 08:56:18","46.8725","117.9","215.72","560","60.07","9"
"04/10/12 09:01:18","46.8816","122.3","215.79","575","59.96","9"
"04/10/12 09:06:17","46.8911","124.9","215.41","586","60.03","10"
"04/10/12 09:11:18","46.8999","114.6","215.32","547","60.0","10"
"04/10/12 09:16:19","46.9091","117.3","215.82","555","60.03","11"
"04/10/12 09:21:19","46.9185","124.7","216.0","587","60.03","10"
"04/10/12 09:26:19","46.929","139.7","216.16","650","60.0","10"
"04/10/12 09:31:18","46.9402","147.3","216.77","685","60.03","11"
"04/10/12 09:41:18","46.9607","59.5","214.75","153","60.0","11"
"04/10/12 09:46:18","46.9644","54.2","213.96","288","60.03","10"
"04/10/12 09:51:18","46.9683","56.1","215.17","342","60.0","10"
"04/10/12 09:56:19","46.9727","46.4","214.18","399","60.03","9"
"04/10/12 10:01:17","46.9769","56.1","213.67","360","60.0","9"
"04/10/12 10:06:19","46.9813","52.8","213.64","101","60.03","9"
"04/10/12 10:11:17","46.9857","59.4","214.11","98","60.03","9"
"04/10/12 10:16:18","46.9904","64.3","214.37","329","60.0","9"
"04/10/12 10:21:18","46.9953","64.2","213.65","330","60.0","9"
"04/10/12 10:26:18","47.0006","75.3","214.98","373","60.03","9"
"04/10/12 10:31:18","47.0066","79.6","215.37","392","60.0","9"
"04/10/12 10:36:17","47.0123","70.5","214.86","355","60.0","9"
"04/10/12 10:41:18","47.0177","71.1","214.57","358","60.03","9"
"04/10/12 10:46:18","47.0232","72.9","214.64","363","60.03","9"
"04/10/12 10:51:18","47.0291","73.3","214.72","364","60.0","9"
"04/10/12 10:56:19","47.0347","65.5","214.53","332","60.03","9"
"04/10/12 11:01:19","47.0396","64.7","216.07","328","60.0","9"
"04/10/12 11:06:18","47.0446","74.5","215.01","201","60.0","9"
"04/10/12 11:11:18","47.0488","57.5","215.23","282","60.03","9"
"04/10/12 11:16:19","47.0525","38.2","215.05","105","60.03","9"
"04/10/12 11:21:18","47.0556","51.0","214.79","216","60.07","9"
"04/10/12 11:26:19","47.0595","58.9","215.0","402","60.03","8"
"04/10/12 11:31:19","47.064","69.0","213.98","397","60.0","9"
"04/10/12 11:36:18","47.069","73.7","214.55","372","60.07","8"
"04/10/12 11:41:19","47.0768","114.4","214.98","549","60.03","9"
"04/10/12 11:51:18","47.1016","186.5","216.79","853","60.03","11"
"04/10/12 11:56:19","47.116","186.1","216.78","852","60.07","12"
"04/10/12 12:01:18","47.1295","152.3","215.53","705","60.03","13"
"04/10/12 12:06:19","47.1443","196.1","216.89","885","60.03","14"
"04/10/12 12:11:19","47.1584","167.5","216.07","773","60.03","15"
"04/10/12 12:16:18","47.173","167.8","216.61","768","60.03","15"
"04/10/12 12:21:18","47.1834","94.2","214.65","460","60.0","14"
"04/10/12 12:26:18","47.1938","144.9","215.34","676","60.03","14"
"04/10/12 12:31:18","47.2008","61.9","213.13","323","60.03","13"
"04/10/12 12:36:18","47.2057","63.4","215.48","325","60.03","12"
"04/10/12 12:41:18","47.2106","64.8","214.9","389","60.03","11"
"04/10/12 12:46:18","47.2139","43.0","213.51","201","60.03","10"
"04/10/12 12:51:17","47.2172","48.3","213.3","347","60.03","9"
"04/10/12 12:56:18","47.221","49.9","213.74","389","60.03","9"
"04/10/12 13:01:18","47.2258","67.8","215.13","342","60.0","9"
"04/10/12 13:06:18","47.2315","75.2","215.46","373","60.03","9"
"04/10/12 13:11:18","47.2375","75.5","214.86","376","60.0","9"
"04/10/12 13:16:19","47.245","103.5","215.49","496","60.0","9"
"04/10/12 13:21:18","47.2521","86.4","214.84","424","60.03","9"
"04/10/12 13:26:18","47.2589","87.4","215.99","428","60.07","9"
"04/10/12 13:31:18","47.268","161.3","218.29","737","60.03","10"
"04/10/12 13:36:17","47.2792","121.1","217.23","570","60.03","10"
"04/10/12 13:41:18","47.2873","99.0","217.13","476","60.07","10"
"04/10/12 13:46:19","47.3001","155.6","217.48","716","60.03","11"
"04/10/12 13:51:17","47.3133","195.4","218.17","885","60.07","13"
"04/10/12 13:56:19","47.3265","167.8","218.74","765","60.03","13"
"04/10/12 14:01:19","47.3351","91.4","215.85","446","60.03","13"
"04/10/12 14:06:18","47.3434","85.0","215.18","415","60.03","12"
"04/10/12 14:11:19","47.3528","115.9","216.68","547","60.03","12"
"04/10/12 14:16:19","47.3613","92.9","215.76","444","60.03","12"
"04/10/12 14:21:17","47.3701","143.7","217.28","668","60.03","12"
"04/10/12 14:26:18","47.379","106.7","216.07","511","60.0","11"
"04/10/12 14:31:18","47.3877","148.0","216.53","688","59.96","12"
"04/10/12 14:36:19","47.3971","123.4","216.64","579","60.03","12"
"04/10/12 14:46:17","47.4159","135.3","216.88","634","60.03","12"
"04/10/12 14:51:18","47.4259","142.1","216.41","662","60.03","13"
"04/10/12 14:56:19","47.4395","196.0","218.52","885","60.03","14"
"04/10/12 15:01:18","47.4537","185.2","218.12","841","60.03","15"
"04/10/12 15:06:19","47.4671","167.7","217.23","768","60.0","15"
"04/10/12 15:11:19","47.4798","161.0","216.7","745","60.03","15"
"04/10/12 15:16:18","47.4922","154.3","217.9","712","60.03","15"
"04/10/12 15:21:18","47.5044","155.1","218.01","714","60.03","15"
"04/10/12 15:26:18","47.5163","152.7","217.9","698","60.03","15"
"04/10/12 15:31:18","47.5282","144.7","217.03","669","60.03","15"
"04/10/12 15:36:19","47.5391","123.9","216.41","583","60.03","15"
"04/10/12 15:41:18","47.5497","139.9","216.68","650","60.07","15"
"04/10/12 15:51:19","47.5711","135.5","217.18","631","60.03","14"
"04/10/12 15:56:18","47.5815","132.1","216.54","623","60.03","14"
"04/10/12 16:01:19","47.5916","124.9","216.79","584","60.03","13"
"04/10/12 16:06:17","47.6007","112.8","215.97","534","60.03","13"
"04/10/12 16:11:18","47.6098","121.5","216.75","576","60.03","13"
"04/10/12 16:16:19","47.6189","82.4","215.87","406","60.0","13"
"04/10/12 16:21:18","47.6271","111.0","216.05","528","60.0","13"
"04/10/12 16:26:18","47.6355","105.7","215.84","506","60.03","13"
"04/10/12 16:31:19","47.6435","101.6","216.81","488","60.03","13"
"04/10/12 16:36:18","47.651","91.0","216.61","440","60.03","12"
"04/10/12 16:41:19","47.6577","88.7","215.4","432","60.03","12"
"04/10/12 16:46:18","47.6644","87.9","215.68","427","60.03","12"
"04/10/12 16:51:19","47.671","83.8","215.99","410","60.0","11"
"04/10/12 16:56:19","47.6774","78.6","215.49","390","60.0","11"
"04/10/12 17:01:18","47.6832","74.0","215.06","368","60.03","11"
"04/10/12 17:06:18","47.6888","68.8","214.67","347","60.03","11"
"04/10/12 17:11:18","47.6938","64.3","215.68","324","60.03","11"
"04/10/12 17:16:18","47.6986","68.2","215.76","263","60.03","11"
"04/10/12 17:21:17","47.703","62.0","215.03","330","60.0","11"
"04/10/12 17:26:18","47.707","48.3","215.32","218","60.03","10"
"04/10/12 17:31:19","47.7107","45.8","215.24","370","60.03","10"
"04/10/12 17:36:17","47.7139","34.5","213.94","141","60.03","10"
"04/10/12 17:41:18","47.7169","40.0","215.09","272","60.03","9"
"04/10/12 17:46:19","47.7194","26.7","215.27","124","60.07","9"
"04/10/12 17:51:19","47.7216","20.9","214.61","320","60.07","9"
"04/10/12 17:56:18","47.7235","14.8","214.64","270","60.03","9"
"04/10/12 18:01:18","47.7251","20.6","214.67","132","60.03","9"
"04/10/12 18:06:19","47.7264","15.2","214.43","4","60.03","9"
"04/10/12 18:11:18","47.7275","13.7","213.59","79","60.03","9"
"04/10/12 18:16:18","47.7283","14.4","214.71","0","60.03","9"
"04/10/12 18:21:19","47.729","15.0","214.35","223","60.03","9"
"04/10/12 18:26:19","47.7295","11.8","214.29","96","60.03","9"
"04/10/12 18:31:18","47.7298","0.0","213.84","0","60.03","8"
"04/11/12 06:46:19","47.7303","0.0","214.08","0","60.03","3"
"04/11/12 06:51:19","47.7308","0.0","213.08","239","60.03","4"
"04/11/12 06:56:18","47.7315","13.3","212.09","1","60.03","4"
"04/11/12 07:01:18","47.7324","9.2","211.91","0","60.0","4"
"04/11/12 07:06:18","47.7334","23.1","213.31","211","60.03","5"
"04/11/12 07:11:18","47.7348","26.1","214.22","165","60.03","5"
"04/11/12 07:16:19","47.7363","12.8","213.1","63","60.03","5"
"04/11/12 07:26:20","47.7403","26.3","212.62","180","60.03","6"
"04/11/12 07:31:18","47.7429","30.6","213.64","232","60.07","6"
"04/11/12 07:36:19","47.7457","33.8","213.56","103","60.03","6"
"04/11/12 07:41:19","47.749","50.9","214.14","190","60.07","6"
"04/11/12 07:46:20","47.7526","41.9","213.84","344","60.03","6"
"04/11/12 07:51:18","47.7564","41.8","214.45","295","60.03","6"
"04/11/12 07:56:18","47.7603","48.5","213.69","386","60.0","7"
"04/11/12 08:01:19","47.7642","41.1","214.93","323","60.03","7"
"04/11/12 08:06:18","47.7695","78.4","214.7","386","60.03","7"
"04/11/12 08:11:18","47.7757","72.7","214.23","399","60.03","8"
"04/11/12 08:16:18","47.7811","93.9","215.18","459","60.03","8"
"04/11/12 08:21:19","47.7881","103.6","214.73","498","60.03","8"
"04/11/12 08:26:19","47.7962","93.2","215.47","451","60.03","9"
"04/11/12 08:31:19","47.8014","45.0","213.39","311","60.0","9"
"04/11/12 08:36:18","47.8046","48.4","213.61","159","60.03","9"
"04/11/12 08:41:19","47.8076","36.2","213.74","137","60.03","9"
"04/11/12 08:46:19","47.8107","41.5","214.26","303","60.03","9"
"04/11/12 08:51:19","47.8134","13.7","213.82","225","60.03","8"
"04/11/12 08:56:19","47.8152","22.7","214.46","107","60.03","8"
"04/11/12 09:01:19","47.8172","27.0","214.32","84","60.0","8"
"04/11/12 09:06:18","47.8202","35.3","214.9","143","60.0","9"
"04/11/12 09:11:18","47.8223","12.8","213.97","46","60.0","9"
"04/11/12 09:16:18","47.8241","13.5","213.82","135","60.03","9"
"04/11/12 09:21:19","47.8265","37.6","214.26","265","60.03","9"
"04/11/12 09:26:19","47.8295","37.9","214.55","336","60.03","9"
"04/11/12 09:31:19","47.8334","50.4","215.04","292","60.03","9"
"04/11/12 09:36:19","47.8364","39.2","215.77","119","60.03","9"
"04/11/12 09:41:19","47.8407","42.5","215.57","319","60.03","9"
"04/11/12 09:46:19","47.845","55.3","213.82","151","60.0","9"
"04/11/12 09:51:19","47.8487","34.9","214.39","352","60.03","9"
"04/11/12 09:56:18","47.8519","50.6","214.85","107","60.0","9"
"04/11/12 10:01:18","47.8559","48.7","215.1","236","60.0","9"
"04/11/12 10:06:19","47.8598","47.4","214.34","375","60.03","9"
"04/11/12 10:11:19","47.8638","51.4","214.19","348","60.03","9"
"04/11/12 10:16:18","47.8681","69.5","214.77","352","60.07","9"
"04/11/12 10:21:18","47.8725","41.9","214.12","359","60.0","10"
"04/11/12 10:26:19","47.8773","67.7","214.36","343","60.03","10"
"04/11/12 10:31:18","47.8822","44.2","214.94","203","60.03","10"
"04/11/12 10:36:18","47.8862","44.7","214.79","359","60.03","11"
"04/11/12 10:41:19","47.891","60.5","215.26","313","60.0","11"
"04/11/12 10:46:20","47.8954","46.5","215.12","281","60.0","11"
"04/11/12 10:51:18","47.9009","98.7","215.74","475","60.0","11"
"04/11/12 10:56:19","47.9069","70.9","216.01","353","60.07","11"
"04/11/12 11:01:19","47.9119","59.2","214.99","372","60.03","11"
"04/11/12 11:06:18","47.9175","72.3","215.52","358","60.03","11"
"04/11/12 11:11:19","47.9244","94.7","216.54","456","60.03","12"
"04/11/12 11:16:19","47.9305","68.6","215.82","346","60.03","12"
"04/11/12 11:21:19","47.9364","83.0","215.92","407","60.03","12"
"04/11/12 11:26:19","47.944","91.6","216.04","446","60.07","12"
"04/11/12 11:31:19","47.951","180.9","216.95","828","60.03","13"
"04/11/12 11:36:19","47.959","70.3","215.55","352","60.03","13"
"04/11/12 11:41:18","47.9641","66.5","216.41","335","60.03","13"
"04/11/12 11:46:19","47.9705","92.8","216.7","447","60.0","13"
"04/11/12 11:51:19","47.9775","86.9","216.81","424","60.03","13"
"04/11/12 11:56:20","47.9841","74.1","215.86","371","60.03","13"
"04/11/12 12:01:20","47.9901","92.9","215.51","455","60.07","13"
"04/11/12 12:06:18","47.9967","77.5","215.62","386","60.03","12"
"04/11/12 12:11:19","48.0024","78.6","215.73","390","60.03","12"
"04/11/12 12:16:19","48.0095","94.2","215.69","457","60.0","13"
"04/11/12 12:21:20","48.0174","83.5","216.8","406","60.07","13"
"04/11/12 12:26:18","48.024","88.0","215.59","433","60.03","13"
"04/11/12 12:31:18","48.0295","67.2","215.15","342","60.03","13"
"04/11/12 12:36:19","48.0369","71.6","214.97","359","60.0","13"
"04/11/12 12:41:18","48.0449","100.4","215.94","482","60.03","14"
"04/11/12 12:46:19","48.0507","76.7","215.07","380","60.07","13"
"04/11/12 12:51:20","48.0579","92.4","216.56","449","60.03","14"
"04/11/12 12:56:20","48.0644","81.6","215.48","402","60.07","14"
"04/11/12 13:01:19","48.0703","75.4","214.86","378","60.0","13"
"04/11/12 13:06:18","48.0761","82.6","215.73","408","60.03","13"
"04/11/12 13:11:19","48.0821","71.6","215.02","359","60.03","13"
"04/11/12 13:16:19","48.0874","67.0","214.95","337","60.0","13"
"04/11/12 13:21:18","48.0932","74.7","215.47","372","60.03","13"
"04/11/12 13:26:19","48.0987","66.1","215.53","333","60.03","13"
"04/11/12 13:31:20","48.1049","84.8","216.03","416","60.03","13"
"04/11/12 13:36:19","48.112","106.8","216.53","506","60.0","13"
"04/11/12 13:41:19","48.1194","79.5","215.52","396","60.03","14"
"04/11/12 13:46:18","48.1255","73.9","216.0","367","60.07","14"
"04/11/12 13:51:19","48.1319","80.8","216.07","397","60.03","14"
"04/11/12 13:56:19","48.1376","70.6","215.12","356","60.03","13"
"04/11/12 14:01:19","48.143","67.0","215.11","338","60.0","13"
"04/11/12 14:06:19","48.1484","75.2","215.75","377","60.03","13"
"04/11/12 14:11:20","48.1536","55.7","214.88","126","60.0","13"
"04/11/12 14:16:19","48.1583","63.0","215.04","323","60.03","13"
"04/11/12 14:21:19","48.1635","67.3","215.23","342","60.03","13"
"04/11/12 14:26:18","48.1685","66.9","216.32","337","60.03","13"
"04/11/12 14:31:19","48.1738","67.5","216.27","342","60.03","13"
"04/11/12 14:36:18","48.1792","66.0","214.92","334","60.03","13"
"04/11/12 14:41:19","48.1839","66.9","216.2","314","60.03","13"
"04/11/12 14:46:19","48.1887","68.3","215.84","344","60.0","13"
"04/11/12 14:51:18","48.1941","67.4","216.15","339","60.03","13"
"04/11/12 14:56:20","48.199","63.2","215.08","322","60.03","12"
"04/11/12 15:01:18","48.204","65.7","215.5","334","60.03","12"
"04/11/12 15:06:19","48.2094","67.5","215.77","342","60.0","12"
"04/11/12 15:11:18","48.2152","76.7","216.23","381","60.03","12"
"04/11/12 15:21:18","48.2268","75.7","215.78","376","60.03","13"
"04/11/12 15:26:18","48.2328","70.2","215.72","352","60.03","13"
"04/11/12 15:31:19","48.2396","81.9","215.76","404","60.0","13"
"04/11/12 15:36:19","48.2451","51.1","214.62","401","60.03","13"
"04/11/12 15:41:18","48.2512","79.1","215.74","388","59.96","13"
"04/11/12 15:46:19","48.2598","174.9","218.07","792","60.03","13"
"04/11/12 15:51:18","48.2667","62.6","214.92","419","60.0","13"
"04/11/12 15:56:19","48.2708","50.7","214.79","233","60.03","13"
"04/11/12 16:01:18","48.279","91.3","216.58","443","60.03","14"
"04/11/12 16:11:19","48.2961","117.5","216.37","554","60.03","14"
"04/11/12 16:16:20","48.3045","112.8","215.47","536","60.03","15"
"04/11/12 16:21:18","48.313","107.1","215.99","513","60.0","15"
"04/11/12 16:26:18","48.3211","103.5","216.16","494","60.03","15"
"04/11/12 16:31:18","48.329","99.0","215.41","479","60.0","15"
"04/11/12 16:36:20","48.3366","95.0","214.83","460","60.03","15"
"04/11/12 16:41:19","48.3438","90.6","215.56","443","60.03","15"
"04/11/12 16:46:20","48.3507","86.2","214.87","425","60.03","15"
"04/11/12 16:51:19","48.3573","81.8","214.21","407","60.03","15"
"04/11/12 16:56:19","48.3634","76.8","215.41","383","60.07","15"
"04/11/12 17:01:19","48.3693","72.5","215.33","365","60.07","15"
"04/11/12 17:06:19","48.3746","67.6","214.59","343","60.03","15"
"04/11/12 17:11:19","48.3797","62.9","214.77","324","60.03","15"
"04/11/12 17:16:18","48.3844","47.8","214.84","299","60.03","15"
"04/11/12 17:21:19","48.3885","56.0","213.96","361","60.03","15"
"04/11/12 17:26:19","48.3924","54.5","214.77","96","60.03","15"
"04/11/12 17:31:19","48.396","49.2","213.82","275","60.03","15"
"04/11/12 17:36:20","48.3992","42.8","213.91","297","60.03","14"
"04/11/12 17:41:18","48.4021","33.3","213.54","210","60.03","13"
"04/11/12 17:46:19","48.4047","31.2","213.79","100","60.0","13"
"04/11/12 17:51:19","48.4069","28.8","214.1","108","60.0","13"
"04/11/12 17:56:19","48.4088","22.1","214.98","24","60.03","13"
"04/11/12 18:01:18","48.4104","10.4","214.96","111","60.03","12"
"04/11/12 18:06:18","48.4117","13.7","214.33","11","60.0","12"
"04/11/12 18:11:20","48.4129","10.8","213.67","152","60.03","11"
"04/11/12 18:16:19","48.4137","13.8","214.09","2","60.03","11"
"04/11/12 18:21:18","48.4144","0.0","214.4","0","60.03","11"
"04/11/12 18:26:19","48.4149","13.6","214.03","5","60.0","11"
"04/11/12 18:31:19","48.4152","0.0","214.25","0","60.0","10"
"04/11/12 18:36:20","48.4154","0.0","213.28","0","60.03","10"
"04/11/12 18:41:19","48.4156","0.0","213.8","0","60.03","9"
"04/11/12 18:46:19","48.4156","0.0","212.95","0","60.03","8"
"04/11/12 18:51:19","48.4156","0.0","213.41","0","60.07","8"
"04/12/12 06:51:19","48.4159","0.0","214.43","0","60.03","0"
"04/12/12 06:56:18","48.4164","13.6","214.15","93","60.03","1"
"04/12/12 07:01:18","48.4172","11.1","213.12","26","60.03","1"
"04/12/12 07:06:19","48.4182","15.1","213.33","233","60.03","2"
"04/12/12 07:11:19","48.4195","26.7","214.17","159","60.0","2"
"04/12/12 07:16:20","48.4211","18.9","213.85","65","60.0","3"
"04/12/12 07:21:18","48.423","20.7","213.77","290","60.0","3"
"04/12/12 07:26:19","48.4252","27.5","214.02","153","60.03","4"
"04/12/12 07:31:19","48.4278","42.0","215.02","200","60.0","4"
"04/12/12 07:36:19","48.4309","47.6","214.05","110","60.03","5"
"04/12/12 07:41:19","48.4343","52.9","213.7","373","60.03","5"
"04/12/12 07:46:19","48.4381","57.5","212.65","86","60.03","6"
"04/12/12 07:51:19","48.442","42.8","214.65","346","60.03","6"
"04/12/12 07:56:20","48.4458","56.5","215.58","122","60.0","6"
"04/12/12 08:01:19","48.4496","41.1","215.72","334","60.0","7"
"04/12/12 08:06:20","48.4549","69.8","214.82","353","60.0","7"
"04/12/12 08:11:20","48.4605","74.6","214.88","375","60.03","8"
"04/12/12 08:16:18","48.4665","79.8","215.18","393","60.03","8"
"04/12/12 08:21:20","48.4729","84.5","215.84","413","60.0","9"
"04/12/12 08:26:20","48.4797","89.2","216.64","435","60.03","9"